Location: Eymir
(36.7333°N, 29.7833°E)
Time: 17:16:18
(UTC+00:00)

Okean 1-7 - Pass Details

Date: 14 January 2026
Orbit: 566 x 588 km, 82.5° (Epoch: 17 February)

Event Time Altitude Azimuth Distance (km) Brightness Sun altitude
Rises 04:37:21 0° 355° (N) 2,777 6.1 -7.3°
Reaches altitude 10° 04:39:33 10° 358° (N) 1,878 5.3 -6.9°
Maximum altitude 04:43:40 71° 83° (E) 608 3.3 -6.2°
Drops below altitude 10° 04:47:48 10° 167° (SSE) 1,876 6.1 -5.4°
Sets 04:49:59 0° 170° (S) 2,774 6.9 -5.0°
